Bellingham, WA
on Thursday, December 20, 2012

Thursday
Previous Day Next Day
Daily Summary
 ActualAverageRecord
Temperature
Mean Temperature °F / °C 38°F / 3°C  
Max Temperature 46°F / 8°C 44°F / 7°C 59°F / 15°C (1958)
Min Temperature 36°F / 2°C 32°F / 0°C 11°F / -11°C (1990)
Degree Days
Heating Degree Days 24 27  
Month to date heating degree days 530  
Cooling Degree Days 0 0  
Month to date cooling degree days 0  
Year to date cooling degree days 42  
Moisture
Dew Point 38°F / 3°C   
Average Humidity 85    
Maximum Humidity 100    
Minimum Humidity 73    
Precipitation
Precipitation 0.05 in / 1.27 cm 0.13 in / 3.30 cm 0.88 in / 2.24 cm (1974)
Month to date precipitation 2.86  
Year to date precipitation 34.47  
Wind
Wind Speed 11 mph / 18 km/h   
Max Wind Speed 23 mph / 37 km/h   
Max Gust Speed 31 mph / 50 km/h   
Visibility 10 miles / 16 kilometers   
Events Rain   

Key: T is trace of precipitation, MM is missing value
Source: NWS Daily Summary
Time(PST)TemperatureDew PointHumidity Pressure Visibility Wind DirectionWind SpeedGust SpeedPrecipitationEvents Conditions
12:02 AM 42.8°F / 6.0°C 37.4°F / 3.0°C 81% 29.54 in / 1000.2 hPa 10.0 miles / 16.1 kilometers ESE 8.1 mph / 13.0 km/h - 0.00 in / 0.0 cm   Overcast
12:39 AM 42.8°F / 6.0°C 37.4°F / 3.0°C 81% 29.51 in / 999.2 hPa 10.0 miles / 16.1 kilometers NE 4.6 mph / 7.4 km/h - 0.00 in / 0.0 cm   Overcast
12:53 AM 39.9°F / 4.4°C 37.0°F / 2.8°C 89% 29.54 in / 1000.1 hPa 10.0 miles / 16.1 kilometers North 8.1 mph / 13.0 km/h - 0.00 in / 0.0 cm   Overcast
1:53 AM 37.9°F / 3.3°C 36.0°F / 2.2°C 93% 29.52 in / 999.7 hPa 10.0 miles / 16.1 kilometers NNE 4.6 mph / 7.4 km/h - 0.00 in / 0.0 cm Rain Light Rain
2:38 AM 37.4°F / 3.0°C 37.4°F / 3.0°C 100% 29.50 in / 998.9 hPa 10.0 miles / 16.1 kilometers Calm Calm - 0.00 in / 0.0 cm Rain Light Rain
2:53 AM 37.9°F / 3.3°C 37.0°F / 2.8°C 97% 29.52 in / 999.4 hPa 10.0 miles / 16.1 kilometers North 3.5 mph / 5.6 km/h - 0.00 in / 0.0 cm Rain Light Rain
3:53 AM 45.0°F / 7.2°C 39.9°F / 4.4°C 82% 29.50 in / 998.8 hPa 10.0 miles / 16.1 kilometers SE 11.5 mph / 18.5 km/h 17.3 mph / 27.8 km/h 0.00 in / 0.0 cm Rain Light Rain
4:53 AM 46.0°F / 7.8°C 39.9°F / 4.4°C 79% 29.49 in / 998.4 hPa 10.0 miles / 16.1 kilometers SSE 21.9 mph / 35.2 km/h 31.1 mph / 50.0 km/h 0.00 in / 0.0 cm   Overcast
5:53 AM 46.0°F / 7.8°C 41.0°F / 5.0°C 83% 29.50 in / 998.8 hPa 10.0 miles / 16.1 kilometers SSE 23.0 mph / 37.0 km/h 31.1 mph / 50.0 km/h 0.00 in / 0.0 cm   Overcast
6:41 AM 44.6°F / 7.0°C 41.0°F / 5.0°C 87% 29.50 in / 998.9 hPa 10.0 miles / 16.1 kilometers SSE 17.3 mph / 27.8 km/h 24.2 mph / 38.9 km/h 0.00 in / 0.0 cm Rain Light Rain
6:53 AM 45.0°F / 7.2°C 42.1°F / 5.6°C 90% 29.51 in / 999.3 hPa 10.0 miles / 16.1 kilometers SSE 13.8 mph / 22.2 km/h 25.3 mph / 40.7 km/h 0.00 in / 0.0 cm Rain Light Rain
7:53 AM 44.1°F / 6.7°C 41.0°F / 5.0°C 89% 29.54 in / 1000.1 hPa 10.0 miles / 16.1 kilometers SSE 16.1 mph / 25.9 km/h - 0.00 in / 0.0 cm Rain Light Rain
8:53 AM 44.1°F / 6.7°C 39.9°F / 4.4°C 85% 29.52 in / 999.4 hPa 10.0 miles / 16.1 kilometers SE 11.5 mph / 18.5 km/h 20.7 mph / 33.3 km/h 0.01 in / 0.3 cm Rain Light Rain
9:05 AM 44.6°F / 7.0°C 39.2°F / 4.0°C 81% 29.50 in / 998.9 hPa 10.0 miles / 16.1 kilometers SSE 11.5 mph / 18.5 km/h 19.6 mph / 31.5 km/h 0.00 in / 0.0 cm Rain Light Rain
9:53 AM 42.1°F / 5.6°C 37.9°F / 3.3°C 85% 29.55 in / 1000.7 hPa 4.0 miles / 6.4 kilometers SSE 13.8 mph / 22.2 km/h 19.6 mph / 31.5 km/h 0.01 in / 0.3 cm Rain Light Rain
10:30 AM 42.8°F / 6.0°C 37.4°F / 3.0°C 81% 29.55 in / 1000.6 hPa 10.0 miles / 16.1 kilometers SSE 15.0 mph / 24.1 km/h 21.9 mph / 35.2 km/h 0.00 in / 0.0 cm Rain Light Rain
10:53 AM 41.0°F / 5.0°C 37.0°F / 2.8°C 86% 29.56 in / 1001.0 hPa 10.0 miles / 16.1 kilometers SSE 11.5 mph / 18.5 km/h 20.7 mph / 33.3 km/h 0.00 in / 0.0 cm Rain Light Rain
11:53 AM 42.1°F / 5.6°C 37.9°F / 3.3°C 85% 29.58 in / 1001.7 hPa 10.0 miles / 16.1 kilometers SSE 20.7 mph / 33.3 km/h 31.1 mph / 50.0 km/h 0.00 in / 0.0 cm Rain Light Rain
12:53 PM 42.1°F / 5.6°C 37.0°F / 2.8°C 82% 29.60 in / 1002.4 hPa 10.0 miles / 16.1 kilometers SSE 16.1 mph / 25.9 km/h 23.0 mph / 37.0 km/h 0.00 in / 0.0 cm Rain Light Rain
1:53 PM 42.1°F / 5.6°C 37.9°F / 3.3°C 85% 29.63 in / 1003.3 hPa 10.0 miles / 16.1 kilometers SSE 15.0 mph / 24.1 km/h 31.1 mph / 50.0 km/h 0.00 in / 0.0 cm   Overcast
2:53 PM 42.1°F / 5.6°C 39.0°F / 3.9°C 89% 29.67 in / 1004.5 hPa 10.0 miles / 16.1 kilometers SSE 15.0 mph / 24.1 km/h 21.9 mph / 35.2 km/h 0.01 in / 0.3 cm Rain Light Rain
3:53 PM 42.1°F / 5.6°C 37.9°F / 3.3°C 85% 29.71 in / 1006.0 hPa 10.0 miles / 16.1 kilometers SSE 12.7 mph / 20.4 km/h 23.0 mph / 37.0 km/h 0.00 in / 0.0 cm   Overcast
4:53 PM 42.1°F / 5.6°C 37.9°F / 3.3°C 85% 29.73 in / 1006.8 hPa 10.0 miles / 16.1 kilometers SSE 12.7 mph / 20.4 km/h 20.7 mph / 33.3 km/h N/A   Mostly Cloudy
5:53 PM 43.0°F / 6.1°C 37.0°F / 2.8°C 80% 29.76 in / 1007.8 hPa 10.0 miles / 16.1 kilometers SSE 13.8 mph / 22.2 km/h 27.6 mph / 44.4 km/h N/A   Overcast
6:30 PM 42.8°F / 6.0°C 37.4°F / 3.0°C 81% 29.75 in / 1007.3 hPa 10.0 miles / 16.1 kilometers SSE 13.8 mph / 22.2 km/h 20.7 mph / 33.3 km/h 0.00 in / 0.0 cm   Overcast
6:53 PM 43.0°F / 6.1°C 37.0°F / 2.8°C 80% 29.79 in / 1008.6 hPa 10.0 miles / 16.1 kilometers South 10.4 mph / 16.7 km/h - 0.00 in / 0.0 cm   Overcast
7:53 PM 42.1°F / 5.6°C 37.0°F / 2.8°C 82% 29.80 in / 1008.9 hPa 10.0 miles / 16.1 kilometers SSE 13.8 mph / 22.2 km/h 20.7 mph / 33.3 km/h 0.02 in / 0.5 cm Rain Light Rain
8:53 PM 43.0°F / 6.1°C 36.0°F / 2.2°C 76% 29.81 in / 1009.5 hPa 10.0 miles / 16.1 kilometers SSE 12.7 mph / 20.4 km/h 17.3 mph / 27.8 km/h 0.00 in / 0.0 cm   Overcast
9:53 PM 43.0°F / 6.1°C 37.0°F / 2.8°C 80% 29.83 in / 1009.9 hPa 10.0 miles / 16.1 kilometers SE 10.4 mph / 16.7 km/h - N/A   Mostly Cloudy
10:53 PM 41.0°F / 5.0°C 33.1°F / 0.6°C 73% 29.84 in / 1010.3 hPa 10.0 miles / 16.1 kilometers ENE 5.8 mph / 9.3 km/h - N/A   Partly Cloudy
11:53 PM 36.0°F / 2.2°C 33.1°F / 0.6°C 89% 29.84 in / 1010.3 hPa 10.0 miles / 16.1 kilometers NNE 4.6 mph / 7.4 km/h - N/A   Partly Cloudy
Moon Phase
Dec. 20 Dec. 28 Jan. 04 Jan. 11 Jan. 18
Sunrise:08:00 AM (PST) Moon Rise:12:00 PM (PST)12/20
Sunset:04:15 PM (PST) Moon Set:12:25 AM (PST)12/20

Copyright © 2014 The Weather Underground, Inc.